Change the Weather History Date:

Wednesday, March 12, 2014

  Actual Average Record
Temperature  
Mean Temperature 71 °F 67 °F  
Max Temperature 82 °F 79 °F 100 °F (1916)
Min Temperature 60 °F 54 °F 36 °F (1909)
Degree Days  
Heating Degree Days 0 2  
Month to date heating degree days 4 25  
Since 1 July heating degree days 365 648  
Cooling Degree Days 6 3  
Month to date cooling degree days 68 32  
Year to date cooling degree days 182 68  
Growing Degree Days 21 (Base 50)    
Moisture  
Dew Point 16 °F    
Average Humidity 15    
Maximum Humidity 22    
Minimum Humidity 8    
Precipitation  
Precipitation 0.00 in 0.02 in 0.32 in (1982)
Month to date precipitation 0.07 0.15  
Year to date precipitation 0.07 0.91  
Sea Level Pressure  
Sea Level Pressure 29.97 in    
Wind  
Wind Speed 9 mph (North)    
Max Wind Speed 22 mph    
Max Gust Speed 27 mph    
Visibility 10 miles    
Events      
T = Trace of Precipitation, MM = Missing Value Source: NWS Daily Summary

Daily Weather History Graph

Daily Weather History Graph

Search for Another Location

Airport or City:

Trip Planner

Search our weather history database for the weather conditions in past years. The results will help you decide how hot, cold, wet, or windy it might be!

Date:

Astronomy

Mar. 12, 2014 Rise Set
Actual Time 6:52 AM MST 6:44 PM MST
Civil Twilight 6:27 AM MST 7:08 PM MST
Nautical Twilight 5:59 AM MST 7:37 PM MST
Astronomical Twilight 5:30 AM MST 8:06 PM MST
Moon 3:27 PM MST (3/12) 4:16 AM MST (3/12)
Length of Visible Light 12h 40m
Length of Day
11h 51m
Waxing Gibbous, 86% of the Moon is Illuminated
Mar 12
Waxing Gibbous
Mar 16
Full
Mar 23
Last Quarter
Mar 30
New
Apr 7
First Quarter

Hourly Weather History & Observations

Time (MST) Temp. Dew Point Humidity Pressure Visibility Wind Dir Wind Speed Gust Speed Precip Events Conditions
12:57 AM 66.0 °F 10.9 °F 12% 29.97 in 10.0 mi North 9.2 mph - N/A   Clear
1:57 AM 64.9 °F 10.9 °F 12% 29.97 in 10.0 mi North 9.2 mph - N/A   Clear
2:57 AM 64.0 °F 10.9 °F 13% 29.96 in 10.0 mi North 10.4 mph - N/A   Clear
3:57 AM 63.0 °F 12.0 °F 14% 29.96 in 10.0 mi North 12.7 mph - N/A   Clear
4:57 AM 62.1 °F 12.0 °F 14% 29.97 in 10.0 mi North 11.5 mph - N/A   Clear
5:57 AM 61.0 °F 14.0 °F 16% 29.99 in 10.0 mi North 8.1 mph - N/A   Clear
6:57 AM 61.0 °F 15.1 °F 17% 30.01 in 10.0 mi North 10.4 mph - N/A   Partly Cloudy
7:57 AM 63.0 °F 16.0 °F 16% 30.03 in 10.0 mi NNW 11.5 mph - N/A   Scattered Clouds
8:57 AM 66.0 °F 17.1 °F 15% 30.05 in 10.0 mi North 13.8 mph - N/A   Scattered Clouds
9:57 AM 69.1 °F 17.1 °F 14% 30.06 in 10.0 mi North 16.1 mph 25.3 mph N/A   Mostly Cloudy
10:57 AM 73.0 °F 17.1 °F 12% 30.05 in 10.0 mi North 15.0 mph - N/A   Mostly Cloudy
11:57 AM 75.0 °F 17.1 °F 11% 30.04 in 10.0 mi North 10.4 mph 19.6 mph N/A   Mostly Cloudy
12:57 PM 78.1 °F 18.0 °F 10% 30.01 in 10.0 mi North 9.2 mph - N/A   Mostly Cloudy
1:57 PM 80.1 °F 16.0 °F 9% 29.98 in 10.0 mi North 12.7 mph - N/A   Mostly Cloudy
2:57 PM 80.1 °F 14.0 °F 8% 29.96 in 10.0 mi North 8.1 mph - N/A   Mostly Cloudy
3:57 PM 80.1 °F 14.0 °F 8% 29.94 in 10.0 mi NNW 5.8 mph - N/A   Partly Cloudy
4:57 PM 81.0 °F 14.0 °F 8% 29.92 in 10.0 mi NNW 5.8 mph - N/A   Partly Cloudy
5:57 PM 79.0 °F 14.0 °F 9% 29.91 in 10.0 mi North 5.8 mph - N/A   Partly Cloudy
6:57 PM 75.0 °F 16.0 °F 11% 29.92 in 10.0 mi NNW 4.6 mph - N/A   Partly Cloudy
7:57 PM 73.0 °F 18.0 °F 12% 29.92 in 10.0 mi NNW 4.6 mph - N/A   Partly Cloudy
8:57 PM 71.1 °F 17.1 °F 13% 29.93 in 10.0 mi North 5.8 mph - N/A   Clear
9:57 PM 66.0 °F 23.0 °F 20% 29.94 in 10.0 mi WNW 8.1 mph - N/A   Clear
10:57 PM 64.0 °F 24.1 °F 22% 29.93 in 10.0 mi Calm Calm - N/A   Clear
11:57 PM 62.1 °F 24.1 °F 23% 29.93 in 10.0 mi Calm Calm - N/A   Clear